Weather in Bondarevo

Russia / Republic of Khakassia     52°56′03″N   90°29′34″E
temp.,
°C
wind,
m/s
gust,
m/s
humid.,
%
clouds,
%
prec.,
mm/h
press.,
hPa
HPBL,
m
8 may, sat
sat801:00+12w4974100 1.0 1016430
04:00+8ssw3791100 0.1 1017163
07:00+10sw39735 0.1 1018427
10:00+15wsw912455 0.0 10172030
13:00+17w911355 0.0 10162307
16:00+17w811335 0.0 10152334
19:00+16w610405 0.0 10161828
22:00+11sw410575 0.0 1017229
9 may, sun
sun901:00+12sw6125365 0.0 1016520
04:00+11sw5135737 0.0 1016667
07:00+11wsw5126299 0.1 10151141
10:00+15wsw9145291 0.4 10141987
13:00+15wnw81249100 1.7 10132194
16:00+7ne7885100 2.5 1016537
19:00+5ene5891100 2.6 1019714
22:00+4ese239095 0.3 1021152
10 may, mon
mon1001:00+3ese118453 0.3 102010
04:00+2ene11815 0.0 102110
07:00+4ne25735 0.0 1022271
10:00+7ne565942 0.0 10211309
13:00+11ne774427 0.0 10191740
16:00+12ne88416 0.0 10181586
19:00+10ene89481 0.0 10171043
22:00+6ene612616 0.0 1016391
11 may, tue
tue1101:00+4ne38745 0.0 1015185
04:00+2ene12840 0.0 101535
07:00+4ne12765 0.0 1015214
10:00+9ne335565 0.0 1014755
13:00+13ne4443100 0.0 10121049
16:00+15ne3438100 0.0 10101192
19:00+14ne3444100 0.0 1010212
22:00+10ene115496 0.0 101110
12 may, wed
wed1201:00+9ene115898 0.0 101210
04:00+8e226390 0.0 101217
07:00+9ne2362100 0.0 1013171
10:00+12ne4546100 0.0 10131207
13:00+13ne6641100 0.0 10121666
16:00+14ne773796 0.0 10122080
19:00+11ene6842100 0.0 10141444
22:00+7ne375440 0.0 1017201